This demonstration page uses our WeatherBlox Daily Observations layout. Learn more.

Left ArrowRight Arrow

34.02893, -84.19858

Hourly Observations for September 30, 2015

Temp ( °F °C ) Dew Point ( °F °C ) Humidity (%) Winds ( mph kmh ) Pressure ( in mb ) Visibility ( mi km ) Precip ( " mm )
12:06 am 00:06 Mostly Cloudy with Mist and Fog 70 21 70 21 100 100 Calm 29.80 1009 1 1 0.00 0.00
12:13 am 00:13 Mostly Cloudy with Mist and Fog 70 21.1 70 21.1 100 100 W 5 7 29.83 1010 3 4 0.00 0.00
12:20 am 00:20 Mostly Cloudy with Mist and Fog 72 22 72 22 100 100 W 5 7 29.80 1009 6 10 0.00 0.00
12:29 am 00:29 Mostly Cloudy with Mist and Fog 71 21.7 71 21.7 100 100 W 3 6 29.80 1009 5 8 0.00 0.00
12:53 am 00:53 Mostly Clear with Mist and Fog 70 21.1 70 21.1 100 100 Calm 29.80 1009 5 8 0.00 0.00
1:01 am 01:01 Partly Cloudy with Mist and Fog 70 21.1 70 21.1 100 100 Calm 29.80 1009 2 3 0.00 0.00
1:04 am 01:04 Mostly Cloudy with Mist and Fog 70 21 70 21 100 100 Calm 29.80 1009 1 1 0.00 0.00
1:08 am 01:08 Mostly Cloudy with Fog 70 21 70 21 100 100 Calm 29.80 1009 1 1 0.00 0.00
1:21 am 01:21 Partly Cloudy with Fog 70 21.1 70 21.1 100 100 Calm 29.80 1009 1 1 0.00 0.00
1:49 am 01:49 Mostly Cloudy with Fog 70 21 70 21 100 100 Calm 29.80 1009 1 1 0.00 0.00
1:53 am 01:53 Mostly Cloudy with Fog 69 20.6 69 20.6 100 100 Calm 29.80 1009 1 1 0.00 0.00
2:08 am 02:08 Mostly Cloudy with Mist and Fog 70 21 70 21 100 100 NNE 3 6 29.80 1009 4 6 0.00 0.00
2:53 am 02:53 Cloudy 70 21.1 70 21.1 100 100 NW 5 7 29.79 1009 10 16 0.00 0.00
3:53 am 03:53 Cloudy with Mist and Fog 70 21.1 70 21.1 100 100 W 3 6 29.78 1009 5 8 0.00 0.00
4:53 am 04:53 Cloudy 70 21.1 70 21.1 100 100 NW 5 7 29.78 1008 9 14 0.00 0.00
5:53 am 05:53 Cloudy 70 21.1 70 21.1 100 100 W 5 7 29.77 1008 10 16 0.00 0.00
6:53 am 06:53 Cloudy with Mist and Fog 70 21.1 69 20.6 97 97 NW 3 6 29.78 1008 4 6 0.00 0.00
6:56 am 06:56 Cloudy with Mist and Fog 70 21 70 21 100 100 Calm 29.80 1009 4 6 0.00 0.00
7:53 am 07:53 Cloudy with Mist and Fog 70 21.1 70 21.1 100 100 Calm 29.79 1009 4 6 0.00 0.00
8:53 am 08:53 Mostly Cloudy 70 21.1 69 20.6 97 97 WNW 3 6 29.80 1009 10 16 0.00 0.00
9:26 am 09:26 Mostly Sunny 72 22 68 20 88 88 NNW 5 7 29.83 1010 10 16 0.00 0.00
9:53 am 09:53 Sunny 73 22.8 67 19.4 81 81 NW 3 6 29.81 1009 10 16 0.00 0.00
10:53 am 10:53 Mostly Sunny 77 25 67 19.4 71 71 NW 3 6 29.82 1010 10 16 0.00 0.00
11:53 am 11:53 Sunny 81 27.2 68 20 65 65 WNW 8 13 29.81 1010 10 16 0.00 0.00
12:53 pm 12:53 Sunny 82 27.8 68 20 63 63 WNW 6 9 29.80 1009 10 16 0.00 0.00
1:53 pm 13:53 Sunny 83 28.3 68 20 61 61 NW 8 13 29.79 1009 10 16 0.00 0.00
2:53 pm 14:53 Sunny 84 28.9 68 20 59 59 W 5 7 29.77 1008 10 16 0.00 0.00
3:53 pm 15:53 Mostly Cloudy 84 28.9 68 20 59 59 W 8 13 29.75 1008 10 16 0.00 0.00
4:53 pm 16:53 Mostly Cloudy 84 28.9 68 20 59 59 NW 9 15 29.75 1007 10 16 0.00 0.00
5:53 pm 17:53 Mostly Cloudy 81 27.2 68 20 65 65 NW 7 11 29.75 1008 10 16 0.00 0.00
6:53 pm 18:53 Mostly Sunny 78 25.6 67 19.4 69 69 WNW 6 9 29.76 1008 10 16 0.00 0.00
7:53 pm 19:53 Clear 75 23.9 67 19.4 76 76 WNW 5 7 29.77 1008 10 16 0.00 0.00
8:53 pm 20:53 Clear 73 22.8 67 19.4 81 81 WNW 5 7 29.77 1008 10 16 0.00 0.00
9:53 pm 21:53 Clear 72 22.2 66 18.9 82 82 NW 8 13 29.78 1009 10 16 0.00 0.00
10:53 pm 22:53 Clear 70 21.1 66 18.9 87 87 NW 7 11 29.79 1009 10 16 0.00 0.00
11:53 pm 23:53 Clear 69 20.6 66 18.9 90 90 NW 6 9 29.79 1009 10 16 0.00 0.00

Powered by AerisWeather